This is the latest recevied weather packets stored in our database for station/object W2JBO-5. If no packets are shown the sender has not sent any weather packets the latest 10 day(s).
| Time | Temp. | Humidity | Pressure | Rain* | Wind** | Luminosity | Snow |
|---|---|---|---|---|---|---|---|
| 1777711680 | 11.67° C | 99% | 1013.8 hPa | 1.78 mm | - | 0 W/m² | - |
| 1777711376 | 11.67° C | 99% | 1014 hPa | 1.78 mm | - | 0 W/m² | - |
| 1777711072 | 11.67° C | 99% | 1013.6 hPa | 1.78 mm | - | 0 W/m² | - |
| 1777710769 | 11.67° C | 99% | 1014 hPa | 1.27 mm | - | 0 W/m² | - |
| 1777710466 | 11.67° C | 99% | 1014 hPa | 3.05 mm | - | 0 W/m² | - |
| 1777710163 | 11.67° C | 99% | 1013.4 hPa | 1.78 mm | - | 0 W/m² | - |
| 1777709860 | 11.67° C | 99% | 1013.8 hPa | 0 mm | - | 0 W/m² | - |
| 1777709558 | 11.67° C | 99% | 1013.8 hPa | 1.27 mm | - | 0 W/m² | - |
| 1777709255 | 11.67° C | 99% | 1014 hPa | 1.27 mm | - | 0 W/m² | - |
| 1777708952 | 11.67° C | 99% | 1013.9 hPa | 0 mm | - | 0 W/m² | - |
| 1777708650 | 11.67° C | 99% | 1013.8 hPa | 0 mm | - | 0 W/m² | - |
| 1777708347 | 11.67° C | 99% | 1013.7 hPa | 0 mm | - | 0 W/m² | - |
| 1777708045 | 11.67° C | 99% | 1013.7 hPa | 1.78 mm | - | 0 W/m² | - |
| 1777707742 | 11.67° C | 99% | 1014.1 hPa | 1.78 mm | - | 0 W/m² | - |
| 1777707438 | 11.67° C | 99% | 1014.1 hPa | 0 mm | - | 0 W/m² | - |
| 1777707134 | 11.67° C | 99% | 1013.7 hPa | 3.05 mm | - | 0 W/m² | - |
| 1777706832 | 11.67° C | 99% | 1013.6 hPa | 3.05 mm | - | 0 W/m² | - |
| 1777706530 | 11.67° C | 99% | 1013.4 hPa | 3.05 mm | - | 0 W/m² | - |
| 1777706227 | 11.67° C | 99% | 1013.9 hPa | 3.05 mm | - | 0 W/m² | - |
| 1777705925 | 11.67° C | 99% | 1014.4 hPa | 4.32 mm | - | 0 W/m² | - |
| 1777705623 | 11.67° C | 99% | 1014.3 hPa | 4.83 mm | - | 0 W/m² | - |
| 1777705320 | 11.67° C | 99% | 1013.8 hPa | 1.78 mm | - | 0 W/m² | - |
| 1777705019 | 11.67° C | 99% | 1013.6 hPa | 0 mm | - | 0 W/m² | - |
| 1777704716 | 11.67° C | 99% | 1013.8 hPa | 0 mm | - | 0 W/m² | - |
| 1777704415 | 11.67° C | 99% | 1013.6 hPa | 1.78 mm | - | 0 W/m² | - |
* Rain latest hour (hover to see other rain measurements)
** Current wind speed in m/s (hover to see current wind gust speed)